[[{"header":{"parameterUnit":"m.s-1","parameterCategory":1,"la1":30.2991,"la2":30.254,"lo1":-89.0895,"lo2":-89.0444,"dy":0.0017,"dx":0.0017,"nx":28,"ny":28,"refTime":"2025-03-25T09:00:00:Z","depth":0,"parameterNumber":2,"parameterNumberName":"U-component_of_WINDS"},"data":[0,0,0,0,0,0,0,0,0,0,0,0,0,0,0,0,0,0,0,0,0,0,0,0,0,0,0,0,0,0,0,0,0,0,0,0,0,0,0,0,0,0,0,0,0,0,0,0,0,0,0,0,0,0,0,0,0,0,-4.3829,-4.3829,0,-4.3854,-4.3854,-4.3854,-4.3695,-4.369,-4.3686,-4.3682,-4.3707,-4.3711,-4.3716,0,0,0,0,0,0,0,0,0,0,0,0,0,-4.3645,-4.3649,-4.3829,-4.3829,-4.3829,-4.3854,-4.3854,-4.3854,-4.3696,-4.369,-4.3685,-4.3679,-4.3705,-4.3711,-4.3717,0,0,0,0,0,0,0,0,0,0,0,0,0,-4.3703,-4.365,-4.3829,-4.3753,-4.3746,-4.3854,-4.3854,-4.3855,-4.3697,-4.369,-4.3683,-4.3677,-4.3703,-4.371,-4.3718,-4.3898,0,0,-4.374,-4.3743,0,0,0,0,0,0,0,0,-4.37,-4.371,-4.3764,-4.3758,-4.3751,-4.3764,-4.3798,-4.3869,-4.3698,-4.3716,-4.3681,-4.3674,-4.3731,-4.3736,-4.3755,-4.39,-4.3901,-4.3741,-4.3745,-4.3748,-4.375,0,0,0,0,0,0,0,-4.3696,-4.3708,-4.3838,-4.3765,-4.3757,-4.3718,-4.3719,-4.3811,-4.3761,-4.3714,-4.3702,-4.3707,-4.3727,-4.3749,-4.3755,-4.3901,-4.374,-4.3747,-4.3751,-4.3754,-4.4198,-4.4205,0,0,0,0,0,0,-4.3702,-4.3706,-4.3838,-4.3839,-4.3708,-4.3727,-4.3728,-4.3767,-4.376,-4.3752,-4.3713,-4.37,-4.374,-4.3747,-4.3755,-4.3968,-4.3748,-4.3755,-4.3759,-4.419,-4.4199,-4.4207,0,0,0,0,0,0,-4.3699,-4.3715,-4.3837,-4.3769,-4.3782,-4.3738,-4.3783,-4.3771,-4.3793,-4.3759,-4.375,-4.3745,-4.3735,-4.3745,-4.3865,-4.3966,-4.3758,-4.3765,-4.4182,-4.4193,-4.4203,-4.4394,0,0,0,0,0,0,-4.3694,-4.3715,-4.3783,-4.3772,-4.3786,-4.3946,-4.3789,-4.3776,-4.3806,-4.3789,-4.3787,-4.378,-4.373,-4.3855,-4.3872,-4.3973,-4.3771,-4.4172,-4.4187,-4.42,-4.4378,-4.441,-4.4437,0,0,0,0,0,-4.3688,-4.3834,-4.3787,-4.3804,-4.387,-4.3952,-4.396,-4.39,-4.3815,-4.3883,-4.3862,-4.378,-4.3953,-4.3868,-4.3886,-4.3991,-4.4165,-4.4183,-4.4199,-4.4365,-4.4404,-4.4436,0,0,0,0,0,0,-4.3856,-4.3831,-4.3778,-4.3925,-4.3942,-4.3925,-4.4008,-4.3942,-4.3983,-4.3965,-4.3889,-4.389,-4.4023,-4.4019,-4.3925,-4.4167,-4.4044,-4.4065,-4.4164,-4.4201,-4.423,-4.4228,-4.3777,0,0,0,0,0,-4.3911,-4.398,-4.3954,-4.4086,-4.4098,-4.4053,-4.4086,-4.4039,-4.4053,-4.4059,-4.4046,-4.4063,-4.4121,-4.4161,-4.4212,-4.4377,-4.4375,-4.4459,-4.4488,-4.4512,-4.4531,-4.462,-4.4657,-4.4262,-4.4262,-4.4261,0,0,-4.4023,-4.4018,-4.4066,-4.412,-4.4127,-4.4201,-4.4059,-4.4142,-4.4196,-4.4071,-4.4183,-4.4176,-4.419,-4.4334,-4.4396,-4.4334,-4.4641,-4.4534,-4.4553,-4.4559,-4.4641,-4.4679,-4.4712,-4.4273,-4.4271,-4.4269,0,0,-4.4266,-4.4269,-4.438,-4.4392,-4.4405,-4.4375,-4.4403,-4.4396,-4.4387,-4.4499,-4.4407,-4.4471,-4.4572,-4.4587,-4.4608,-4.4862,-4.4788,-4.4881,-4.5034,-4.5122,-4.5153,-4.518,-4.5272,-4.5305,-4.49,-4.49,-4.4901,0,-4.4403,-4.451,-4.4446,-4.4536,-4.4564,-4.4456,-4.457,-4.4584,-4.4614,-4.4636,-4.4566,-4.4693,-4.4695,-4.4841,-4.4904,-4.4924,-4.4954,-4.4879,-4.5154,-4.5181,-4.5205,-4.5291,-4.5326,-4.4911,-4.491,-4.4909,-4.4908,0,-4.468,-4.4756,-4.4845,-4.4878,-4.4916,-4.5017,-4.4969,-4.5016,-4.4967,-4.4945,-4.5062,-4.5061,-4.5112,-4.5143,-4.5095,-4.5285,-4.5246,-4.5167,-4.5042,-4.5255,-4.5335,-4.5367,-4.4927,-4.4923,-4.492,-4.4917,0,0,-4.5024,-4.5025,-4.5058,-4.5073,-4.5083,-4.5141,-4.524,-4.529,-4.5332,-4.5358,-4.5438,-4.5529,-4.5457,-4.5481,-4.5435,-4.5512,-4.5715,-4.5423,-4.5422,-4.5478,-4.5925,-4.5984,-4.6023,-4.5667,-4.5673,-4.5678,-4.5924,0,-4.5261,-4.5428,-4.5375,-4.5545,-4.5615,-4.5517,-4.5603,-4.5619,-4.5603,-4.566,-4.5641,-4.5707,-4.5606,-4.5621,-4.5693,-4.5675,-4.5804,-4.5657,-4.5742,-4.5746,-4.5741,-4.6065,-4.6127,-4.6358,-4.5955,-4.596,-4.5964,0,-4.5558,-4.5598,-4.5776,-4.5777,-4.5805,-4.5883,-4.5927,-4.5984,-4.6001,-4.5984,-4.6014,-4.5952,-4.605,-4.5927,-4.6061,-4.5962,-4.5995,-4.5992,-4.5999,-4.6004,-4.5867,-4.6078,-4.6431,-4.6466,-4.6012,-4.6008,-4.6005,0,-4.5792,-4.589,-4.601,-4.6026,-4.603,-4.6088,-4.6093,-4.6104,-4.6139,-4.6178,-4.6201,-4.6251,-4.6278,-4.6319,-4.6273,-4.6188,-4.6415,-4.6288,-4.6404,-4.6405,-4.6454,-4.6451,-4.6817,-4.6477,-4.6477,-4.6476,-4.6475,0,-4.6061,-4.6173,-4.6115,-4.6188,-4.6312,-4.6253,-4.6377,-4.637,-4.6382,-4.6453,-4.6372,-4.644,-4.6376,-4.644,-4.6405,-4.6523,-4.6535,-4.6524,-4.6513,-4.6531,-4.6533,-4.655,-4.6532,-4.6485,-4.6483,-4.6481,-4.648,0,-4.6341,-4.6307,-4.6431,-4.6427,-4.6429,-4.6521,-4.6517,-4.6585,-4.6565,-4.6656,-4.6674,-4.6642,-4.6712,-4.6672,-4.6744,-4.6721,-4.6873,-4.6841,-4.6868,-4.6859,-4.6977,-4.6966,-4.7365,-4.7415,-4.7045,-4.7048,-4.7051,0,-4.6514,-4.6598,-4.6606,-4.6648,-4.6659,-4.6728,-4.6765,-4.6711,-4.6752,-4.6782,-4.6847,-4.6912,-4.6959,-4.7078,-4.706,-4.7116,-4.7083,-4.722,-4.7091,-4.7107,-4.7086,-4.7081,-4.7089,-4.7245,-4.7249,-4.7253,-4.7256,0,-4.6825,-4.6805,-4.6861,-4.6914,-4.6961,-4.6999,-4.703,-4.707,-4.7016,-4.7068,-4.714,-4.7178,-4.7254,-4.7319,-4.7367,-4.7372,-4.7306,-4.7297,-4.7327,-4.7345,-4.7357,-4.7352,-4.6938,-4.7287,-4.7284,-4.7282,-4.728,-4.7279,-4.7055,-4.7127,-4.7145,-4.7212,-4.7231,-4.7263,-4.7328,-4.7318,-4.7377,-4.7435,-4.74,-4.7486,-4.7505,-4.7564,-4.7578,-4.7645,-4.759,-4.7633,-4.7643,-4.7655,-4.7671,-4.7349,-4.7653,-4.7653,-4.7652,-4.7651,-4.765,0,-4.7362,-4.737,-4.7432,-4.748,-4.7534,-4.747,-4.7503,-4.7551,-4.7628,-4.7653,-4.7703,-4.7788,-4.7853,-4.7843,-4.7901,-4.7957,-4.7929,-4.7974,-4.7969,-4.7971,-4.7716,-4.7685,-4.7997,-4.7997,-4.7997,-4.7996,-4.7996,-4.7996,-4.7527,-4.7646,-4.763,-4.7758,-4.7765,-4.785,-4.7874,-4.7905,-4.7924,-4.8023,-4.8077,-4.8071,-4.8083,-4.8142,-4.8199,-4.8195,-4.822,-4.8277,-4.8262,-4.8023,-4.7989,-4.7956,-4.7926,-4.8283,-4.8284,-4.851,-4.8513,-4.8514]},{"header":{"parameterUnit":"m.s-1","parameterCategory":1,"la1":30.2991,"la2":30.254,"lo1":-89.0895,"lo2":-89.0444,"dy":0.0017,"dx":0.0017,"nx":28,"ny":28,"refTime":"2025-03-25T09:00:00:Z","depth":0,"parameterNumber":3,"parameterNumberName":"V-component_of_WINDS"},"data":[0,0,0,0,0,0,0,0,0,0,0,0,0,0,0,0,0,0,0,0,0,0,0,0,0,0,0,0,0,0,0,0,0,0,0,0,0,0,0,0,0,0,0,0,0,0,0,0,0,0,0,0,0,0,0,0,0,0,-1.3016,-1.3018,0,-1.3154,-1.3156,-1.3157,-1.3203,-1.3202,-1.3202,-1.3201,-1.3344,-1.3349,-1.3353,0,0,0,0,0,0,0,0,0,0,0,0,0,-1.2793,-1.2796,-1.3016,-1.3018,-1.3019,-1.3154,-1.3156,-1.3158,-1.3203,-1.3202,-1.3202,-1.3201,-1.3343,-1.3348,-1.3353,0,0,0,0,0,0,0,0,0,0,0,0,0,-1.2906,-1.2798,-1.3016,-1.3058,-1.3063,-1.3154,-1.3156,-1.3158,-1.3203,-1.3202,-1.3202,-1.3201,-1.3341,-1.3348,-1.3354,-1.3412,0,0,-1.3374,-1.3377,0,0,0,0,0,0,0,0,-1.29,-1.2914,-1.305,-1.3055,-1.3061,-1.316,-1.313,-1.3244,-1.3204,-1.315,-1.3201,-1.32,-1.3284,-1.3295,-1.3323,-1.3419,-1.3425,-1.3375,-1.3379,-1.3381,-1.3383,0,0,0,0,0,0,0,-1.2892,-1.2909,-1.3071,-1.3052,-1.3059,-1.3071,-1.3086,-1.3151,-1.3221,-1.3155,-1.3158,-1.3174,-1.3287,-1.3317,-1.3327,-1.3427,-1.3374,-1.338,-1.3384,-1.3387,-1.3579,-1.358,0,0,0,0,0,0,-1.2876,-1.2902,-1.3066,-1.3075,-1.2977,-1.3076,-1.3093,-1.313,-1.322,-1.3233,-1.3175,-1.3176,-1.3306,-1.3319,-1.3332,-1.3407,-1.3381,-1.3387,-1.3391,-1.3577,-1.3579,-1.358,0,0,0,0,0,0,-1.2871,-1.2891,-1.3061,-1.2989,-1.3012,-1.308,-1.3122,-1.3133,-1.3163,-1.3235,-1.3248,-1.3192,-1.3306,-1.3323,-1.3392,-1.3412,-1.339,-1.3396,-1.3576,-1.3578,-1.3579,-1.3556,0,0,0,0,0,0,-1.2865,-1.2889,-1.2911,-1.2989,-1.3015,-1.3118,-1.3123,-1.3136,-1.3174,-1.3176,-1.3255,-1.3267,-1.3306,-1.3382,-1.3399,-1.3421,-1.3402,-1.3575,-1.3577,-1.3579,-1.3555,-1.3557,-1.3558,0,0,0,0,0,-1.2857,-1.2899,-1.2912,-1.2932,-1.3045,-1.3119,-1.3134,-1.3178,-1.3175,-1.3199,-1.3245,-1.3265,-1.3407,-1.3389,-1.3408,-1.3432,-1.3574,-1.3576,-1.3579,-1.3555,-1.3557,-1.3558,0,0,0,0,0,0,-1.2823,-1.2911,-1.2926,-1.2995,-1.3049,-1.3127,-1.3158,-1.3178,-1.3235,-1.3235,-1.3288,-1.3305,-1.337,-1.3408,-1.3386,-1.3494,-1.3491,-1.3498,-1.3467,-1.3469,-1.347,-1.346,-1.3407,0,0,0,0,0,-1.2823,-1.2875,-1.2949,-1.3003,-1.303,-1.3089,-1.3123,-1.3152,-1.321,-1.3234,-1.3285,-1.3342,-1.3399,-1.3436,-1.3493,-1.3561,-1.3579,-1.3587,-1.3588,-1.3589,-1.3595,-1.3634,-1.3638,-1.3589,-1.3589,-1.3589,0,0,-1.2824,-1.2879,-1.2909,-1.2998,-1.3043,-1.3097,-1.3108,-1.3164,-1.3204,-1.3242,-1.3311,-1.335,-1.3417,-1.3486,-1.3519,-1.3519,-1.3612,-1.3593,-1.3593,-1.3598,-1.3637,-1.3641,-1.3645,-1.359,-1.359,-1.359,0,0,-1.2855,-1.2901,-1.2951,-1.2996,-1.3064,-1.3104,-1.3115,-1.319,-1.3218,-1.3287,-1.3317,-1.3366,-1.3464,-1.351,-1.3546,-1.3593,-1.3614,-1.361,-1.3618,-1.3655,-1.3659,-1.3663,-1.368,-1.3686,-1.3615,-1.3615,-1.3615,0,-1.2848,-1.2929,-1.2974,-1.3029,-1.3067,-1.3103,-1.3155,-1.3196,-1.328,-1.3306,-1.3305,-1.3429,-1.3477,-1.3557,-1.3568,-1.3596,-1.3612,-1.3602,-1.3655,-1.3659,-1.3663,-1.368,-1.3687,-1.3614,-1.3615,-1.3615,-1.3615,0,-1.2918,-1.2974,-1.3006,-1.3085,-1.3128,-1.318,-1.3233,-1.3271,-1.3296,-1.3335,-1.3405,-1.3463,-1.3532,-1.3554,-1.3579,-1.3638,-1.3636,-1.3644,-1.3643,-1.3666,-1.3683,-1.369,-1.3613,-1.3614,-1.3614,-1.3614,0,0,-1.2932,-1.3034,-1.3046,-1.3082,-1.316,-1.3204,-1.3258,-1.3326,-1.3357,-1.3413,-1.346,-1.3542,-1.355,-1.3592,-1.3622,-1.3655,-1.3689,-1.366,-1.3662,-1.3664,-1.3758,-1.3752,-1.3759,-1.3703,-1.3704,-1.3705,-1.3753,0,-1.2973,-1.3071,-1.3112,-1.3191,-1.3244,-1.3278,-1.3326,-1.3379,-1.3417,-1.3467,-1.3509,-1.3566,-1.3573,-1.3598,-1.3632,-1.3678,-1.3709,-1.3675,-1.3748,-1.375,-1.3731,-1.3767,-1.3761,-1.3803,-1.376,-1.3761,-1.3762,0,-1.3034,-1.3089,-1.3173,-1.3245,-1.3268,-1.331,-1.3375,-1.3422,-1.3483,-1.3509,-1.3554,-1.3583,-1.3642,-1.3636,-1.3718,-1.3694,-1.3726,-1.3754,-1.3756,-1.3766,-1.3758,-1.3778,-1.3817,-1.3823,-1.3772,-1.3772,-1.3771,0,-1.3036,-1.3132,-1.3194,-1.3224,-1.3309,-1.3338,-1.3374,-1.3434,-1.3472,-1.3529,-1.3554,-1.3617,-1.3652,-1.37,-1.3746,-1.3737,-1.3824,-1.3822,-1.3847,-1.3846,-1.3865,-1.3863,-1.391,-1.3884,-1.3884,-1.3884,-1.3884,0,-1.3077,-1.3127,-1.3196,-1.3235,-1.3292,-1.334,-1.3395,-1.3435,-1.3488,-1.3535,-1.3569,-1.3613,-1.367,-1.3721,-1.3757,-1.382,-1.3835,-1.3858,-1.3867,-1.3855,-1.3853,-1.3878,-1.3876,-1.3886,-1.3885,-1.3885,-1.3885,0,-1.309,-1.3138,-1.3208,-1.3282,-1.3302,-1.3341,-1.3405,-1.3444,-1.3483,-1.3542,-1.3559,-1.3621,-1.3683,-1.3733,-1.3814,-1.3838,-1.3904,-1.3914,-1.3884,-1.3889,-1.3911,-1.3909,-1.3977,-1.3988,-1.3954,-1.3954,-1.3954,0,-1.3113,-1.3153,-1.323,-1.3264,-1.33,-1.3354,-1.3393,-1.3441,-1.3479,-1.3552,-1.3582,-1.3646,-1.37,-1.3798,-1.3851,-1.3913,-1.3925,-1.3945,-1.3935,-1.3922,-1.3926,-1.3924,-1.3928,-1.3946,-1.3946,-1.3946,-1.3946,0,-1.3151,-1.3172,-1.3226,-1.3288,-1.3333,-1.3384,-1.3436,-1.3462,-1.352,-1.3562,-1.3625,-1.3667,-1.375,-1.3813,-1.3881,-1.392,-1.3943,-1.3949,-1.3958,-1.3947,-1.3928,-1.3939,-1.3887,-1.3947,-1.3947,-1.3947,-1.3947,-1.3947,-1.317,-1.3207,-1.3267,-1.3326,-1.337,-1.3417,-1.3458,-1.3501,-1.3555,-1.3625,-1.3651,-1.3716,-1.3776,-1.387,-1.3908,-1.3961,-1.3963,-1.3976,-1.398,-1.3982,-1.3981,-1.3918,-1.3973,-1.3973,-1.3973,-1.3973,-1.3973,0,-1.321,-1.325,-1.3303,-1.3375,-1.3421,-1.3437,-1.3496,-1.3534,-1.3591,-1.3644,-1.3696,-1.3769,-1.3831,-1.3888,-1.3953,-1.3984,-1.3996,-1.3999,-1.3998,-1.4006,-1.3975,-1.3961,-1.3988,-1.3988,-1.3988,-1.3988,-1.3988,-1.3988,-1.3236,-1.3298,-1.3327,-1.3412,-1.3452,-1.3516,-1.3548,-1.3592,-1.3635,-1.3715,-1.3766,-1.3802,-1.3858,-1.3927,-1.3984,-1.4,-1.4022,-1.4023,-1.4041,-1.4011,-1.4009,-1.4007,-1.3993,-1.4027,-1.4027,-1.4068,-1.4068,-1.4068]}]]